Tracking 21076 objects as of 10-Aug-2020
HD Live streaming from Space Station
objects crossing your sky now
Track the most recent launched group of Starlink satellites

FENGYUN 1C DEB

Track FENGYUN 1C DEB now!
10-day predictions


NORAD ID: 31299
Int'l Code: 1999-025BPH
Perigee: 401.4 km
Apogee: 667.2 km
Inclination: 96.9 °
Period: 95.2 minutes
Semi major axis: 6905 km
RCS: 0.0012 m2 (small)
Launch date: May 10, 1999
Source: People's Republic of China (PRC)
Launch site: Taiyaun Space Center, China (TSC)

Note: This is SATELLITE DEBRIS
aabbcc
Your satellite tracking list
Your tracking list is empty




NASA's NSSDC Master Catalog

Two Line Element Set (TLE):
1 31299U 99025BPH 20222.58931337 +.00006768 +00000-0 +24459-3 0  9990
2 31299 096.9374 273.2834 0192448 077.2926 284.9742 15.12978318717280
Source of the keplerian elements: AFSPC